Theta_e
296 293 292 296 297 298 296 295 294 298 301 297 297 297 300 304 305 306 308 309 312 316 322 325 318 323 328 336 342 345 343 344 343 343 345 347 348 352 354 356 355 354 354 354
293 291 296 299 298 296 296 294 295 298 299 298 297 297 301 302 304 308 306 309 312 316 318 316 316 322 327 331 334 335 337 340 344 342 340 340 338 337 342 343 347 349 347 347
294 296 300 297 297 295 296 294 295 295 299 299 297 296 298 302 303 304 306 310 311 313 313 314 316 320 322 327 330 332 333 335 337 335 331 331 331 331 331 331 332 337 338 339
296 300 297 296 295 297 293 299 298 297 295 292 297 291 297 299 300 302 305 307 308 310 313 315 317 320 322 325 326 328 330 332 331 333 333 336 327 323 325 329 331 333 334 334
295 296 296 295 297 299 296 300 299 298 296 295 295 293 296 299 298 302 305 307 310 313 314 314 318 320 323 321 323 326 327 325 326 327 328 326 328 326 325 327 329 331 331 331
298 301 300 299 300 300 300 298 297 296 295 289 293 293 294 298 299 303 305 307 309 312 315 318 320 320 320 319 320 320 321 320 321 323 324 325 324 323 322 323 322 322 323 325
296 297 301 301 298 300 299 296 290 288 288 288 294 292 296 300 303 304 306 307 310 314 315 316 316 317 318 315 315 314 316 315 316 317 317 317 317 317 317 317 316 317 317 318
290 288 297 301 298 296 296 297 291 283 285 288 294 291 296 302 304 306 307 309 311 312 312 313 313 314 313 313 314 314 314 312 313 313 313 314 314 312 313 314 313 313 313 314
291 291 300 302 302 301 296 293 297 292 291 290 293 295 301 302 302 305 306 308 309 309 309 308 309 311 311 311 311 311 311 311 312 311 312 313 313 313 312 313 314 312 314 314
297 291 299 301 303 302 299 300 293 295 286 284 289 291 294 299 301 304 304 306 306 306 307 308 309 309 309 310 310 311 311 309 309 310 310 310 311 311 311 311 311 311 312 312
300 296 295 298 297 297 296 296 295 297 294 288 286 290 301 302 304 304 304 305 305 306 307 307 307 308 308 308 309 309 309 308 308 308 309 309 309 309 309 309 309 310 310 310
299 296 292 293 298 300 300 297 298 292 290 293 293 291 301 303 304 305 303 303 304 305 305 306 306 306 306 307 307 307 307 306 306 307 308 308 308 308 307 307 308 309 308 309
301 295 288 291 295 298 297 297 296 297 296 292 289 291 300 301 301 302 301 301 302 303 303 304 305 305 305 305 306 305 305 305 306 306 306 306 306 306 306 306 307 307 307 307
304 295 293 287 290 296 294 296 296 296 291 292 292 294 298 300 301 301 301 302 302 302 303 303 304 304 304 305 304 304 304 305 305 304 305 304 304 305 305 305 305 306 306 305
301 293 295 294 296 295 295 295 295 294 295 291 293 294 299 301 302 302 302 302 302 302 302 303 303 303 304 303 303 303 304 304 304 303 302 303 303 304 304 304 304 305 305 305
297 292 294 291 294 294 292 294 295 295 296 296 295 295 302 301 302 300 300 301 300 300 300 301 302 302 301 301 301 302 302 302 302 301 300 300 301 301 301 302 303 304 305 305
295 294 291 287 291 291 288 293 294 295 297 297 292 298 300 298 299 300 300 300 299 300 300 300 300 300 300 300 301 300 300 301 300 300 300 300 300 299 300 301 302 303 303 303
294 294 293 288 289 280 291 297 296 295 296 298 298 300 302 302 301 300 300 300 299 299 299 299 299 299 300 300 299 298 298 297 296 297 299 298 298 298 299 300 301 300 301 303
297 294 288 286 285 288 291 296 295 295 294 298 298 298 299 300 300 298 300 299 298 298 298 298 298 298 297 296 296 295 295 295 295 296 297 296 297 297 299 297 298 300 302 303
296 296 291 288 282 280 291 297 302 301 292 298 299 298 298 300 295 297 299 297 297 297 298 297 297 296 296 296 295 294 294 294 294 294 294 295 296 296 296 297 300 302 303 301
289 290 286 285 285 288 295 298 302 289 292 300 301 300 300 299 296 298 297 296 297 297 297 298 296 295 295 296 295 292 292 292 293 293 294 295 296 296 297 300 302 301 300 299
288 286 286 287 285 282 300 300 294 299 301 302 300 298 295 296 297 296 296 296 296 296 296 296 295 295 296 295 293 291 291 292 293 293 293 294 295 297 299 299 298 298 298 297
289 293 291 292 292 297 303 302 304 303 301 300 300 300 299 297 295 295 295 294 295 295 296 297 295 294 294 293 292 290 291 292 292 292 292 293 295 297 299 298 296 296 298 298
296 298 295 294 297 299 302 304 304 303 300 301 301 297 297 295 295 293 293 293 293 294 294 295 293 291 291 292 291 291 291 292 291 290 291 293 294 296 299 298 297 297 298 298
295 297 294 294 298 300 303 303 301 300 300 296 296 297 296 295 293 293 292 293 294 294 295 295 293 291 290 291 290 291 291 291 290 290 290 292 293 295 297 297 297 297 300 301
296 296 295 293 300 301 301 304 301 300 297 297 296 295 295 294 293 292 292 293 293 293 294 294 293 291 290 290 290 290 291 291 290 289 289 290 292 293 293 294 296 297 296 295
Wind_Speed
5 6 10 12 15 11 8 11 14 16 8 9 20 22 20 15 16 17 16 18 19 22 23 21 6 5 6 4 6 7 8 8 8 8 7 5 5 3 4 4 6 6 5 6
6 11 14 11 9 14 15 16 18 15 4 9 7 19 18 9 12 15 16 20 15 17 13 14 6 8 7 8 8 7 7 8 8 6 3 2 4 3 3 2 3 4 5 5
9 2 17 12 11 12 16 14 14 12 7 4 3 6 8 7 12 10 10 18 15 15 15 13 10 9 7 9 9 10 9 10 9 10 7 5 4 4 3 3 4 5 5 5
11 12 11 11 12 13 15 14 17 14 6 7 3 3 3 3 9 12 11 11 18 14 11 9 11 10 10 8 11 11 10 11 9 7 7 6 4 4 3 3 2 3 4 6
9 10 14 13 11 11 8 7 15 8 7 4 4 4 4 2 6 8 11 10 9 9 9 9 9 11 12 10 8 8 9 9 8 6 7 5 5 5 5 5 7 6 6 6
13 3 5 5 5 10 5 4 4 3 3 8 1 4 3 4 3 2 3 5 8 11 14 13 12 12 12 9 9 9 9 10 10 10 10 8 6 5 4 4 5 6 7 7
9 13 8 8 9 6 9 7 6 7 7 7 1 5 1 3 1 4 6 7 10 12 15 14 13 10 9 9 9 9 9 11 10 10 9 8 6 4 4 5 4 7 7 8
11 10 13 9 14 7 9 11 6 11 8 6 3 6 4 1 5 6 6 10 12 11 11 11 9 8 8 9 9 9 8 8 7 7 6 5 5 4 4 5 7 7 8 9
9 10 3 5 4 7 6 7 1 6 2 4 2 2 5 2 5 8 12 12 11 9 9 8 8 9 10 10 10 8 7 6 6 6 5 5 6 7 8 9 9 9 10 10
5 4 4 5 5 5 4 10 5 2 6 7 4 3 5 5 9 13 14 13 10 8 8 9 10 10 8 8 7 7 6 6 5 5 5 6 8 8 9 9 11 12 12 13
13 3 3 2 4 7 6 5 4 5 0 4 6 4 1 4 12 15 12 9 9 9 10 10 10 8 7 6 6 5 6 7 8 8 9 9 9 10 10 11 11 11 11 12
3 3 5 0 2 2 2 3 5 6 6 1 1 3 6 5 12 12 9 8 8 10 9 8 7 6 5 5 6 7 7 8 9 9 10 10 11 11 11 11 11 11 12 11
6 2 1 3 3 1 4 4 5 6 2 8 8 3 3 6 8 5 11 10 10 10 9 7 5 4 3 5 6 8 8 9 9 10 11 12 11 11 12 12 12 12 12 13
10 2 5 7 3 2 5 7 7 8 5 7 9 7 5 5 7 8 8 10 10 8 6 5 3 4 4 6 8 9 10 10 11 11 11 13 12 12 12 13 13 13 13 13
6 10 14 10 11 3 3 7 7 7 6 7 5 8 7 7 9 10 9 9 9 7 4 3 5 6 7 9 10 10 11 11 11 12 13 13 13 13 13 13 14 14 14 13
1 5 4 4 2 1 4 6 8 10 9 9 8 12 6 2 6 11 11 10 9 5 3 5 6 9 10 11 12 12 12 13 13 13 13 13 13 13 13 14 14 14 15 15
3 6 3 3 2 0 9 13 15 13 11 12 14 13 7 6 9 10 9 6 6 5 6 8 10 10 11 12 12 14 14 14 15 14 14 13 13 13 13 14 15 15 15 16
6 5 2 4 4 5 4 5 6 6 8 9 11 11 8 5 9 9 7 6 6 6 7 9 10 11 12 13 13 13 14 14 14 15 14 13 13 14 14 15 15 16 15 16
3 4 4 3 5 7 1 2 2 4 4 2 6 5 10 13 13 9 7 7 6 7 8 8 9 11 13 13 13 13 13 13 14 14 14 13 13 15 15 15 16 17 15 15
5 5 4 4 4 4 4 3 2 3 3 5 9 12 14 10 6 5 5 4 5 5 6 8 10 11 12 12 12 12 13 14 14 13 14 14 14 14 15 16 18 15 14 14
5 3 5 3 3 3 2 3 3 4 4 8 7 9 6 4 5 7 4 4 4 6 8 9 10 10 11 12 12 12 12 13 14 13 13 14 13 14 15 17 14 14 14 12
7 6 4 4 4 4 1 2 3 4 6 9 10 8 10 10 7 6 5 6 8 9 10 10 10 11 11 11 11 12 13 13 12 12 14 14 14 12 13 14 13 13 12 13
4 3 5 5 2 2 3 2 4 5 11 10 12 10 9 6 6 5 5 6 7 9 9 10 11 13 11 10 11 14 13 12 12 12 13 14 14 14 13 13 12 11 11 9
3 4 2 5 4 1 1 4 5 9 12 12 11 9 8 8 5 4 4 5 6 8 9 10 12 13 12 10 11 11 12 12 12 12 14 13 13 14 14 9 8 9 9 7
1 8 4 1 4 2 5 5 10 13 13 13 11 11 9 8 6 4 5 6 7 8 9 9 10 10 12 13 12 12 12 12 12 12 12 12 10 12 13 10 9 10 11 9
4 5 4 1 5 3 3 11 14 14 13 12 13 11 8 7 6 5 6 7 7 8 9 10 11 11 11 12 13 12 13 12 12 11 9 8 9 9 9 10 11 12 15 15
Wind_Direction
187 190 199 198 202 233 267 285 278 271 260 208 222 228 237 250 201 206 223 221 210 220 219 240 143 141 156 153 170 177 155 156 149 157 161 164 177 179 208 222 227 228 231 231
150 226 217 230 220 226 244 263 267 284 261 214 224 230 235 215 237 220 210 218 217 218 204 227 193 170 189 156 152 140 142 151 164 163 145 138 125 121 117 118 136 174 186 194
200 175 215 207 223 219 235 241 258 266 318 192 204 237 235 231 230 242 223 220 221 220 210 223 201 179 150 158 142 132 132 140 138 129 120 101 104 106 157 176 188 197 202 212
220 228 212 212 238 227 250 225 245 263 263 234 263 257 183 278 221 193 186 199 210 216 218 207 181 172 136 143 130 129 136 128 124 136 149 154 148 158 172 186 189 212 244 259
198 189 209 222 222 184 249 240 216 230 223 279 185 237 113 222 203 204 173 187 188 177 182 182 162 130 130 128 118 97 90 76 76 77 59 49 38 19 8 352 333 310 292 287
227 187 206 215 236 200 143 145 102 121 167 233 152 263 142 155 164 134 183 157 167 160 141 137 131 129 115 101 98 91 84 64 55 55 51 51 37 357 332 325 305 304 307 301
208 235 250 230 249 191 194 195 191 206 205 244 127 206 61 160 223 266 239 156 143 138 130 131 128 119 108 79 72 75 69 66 62 65 65 65 57 30 357 336 313 303 295 293
210 218 213 207 218 217 190 208 221 216 210 209 173 205 149 309 285 249 164 143 129 122 118 120 116 111 104 93 93 97 94 86 71 65 53 33 14 341 315 293 292 285 284 284
185 219 160 198 173 187 162 206 132 111 80 225 168 218 243 92 66 125 128 132 133 119 103 97 94 98 105 106 99 97 92 78 53 33 10 344 327 307 299 292 286 285 289 287
180 178 190 145 147 70 222 137 164 165 203 233 188 244 240 177 145 150 151 147 139 113 103 101 105 103 97 91 86 73 60 42 9 338 325 314 308 301 296 295 295 293 291 288
207 224 169 229 204 174 151 165 77 106 99 238 243 212 191 220 172 160 154 147 147 144 135 126 120 110 97 85 64 44 8 349 337 332 324 314 310 309 303 293 292 289 289 287
160 159 223 310 357 333 101 148 180 224 193 152 326 215 6 199 165 160 150 136 125 124 123 119 112 92 65 42 16 353 342 331 329 323 316 311 307 306 301 298 292 289 289 291
157 19 75 200 189 242 221 143 95 87 90 213 228 221 59 106 126 138 139 137 132 131 129 125 116 83 39 3 341 333 326 322 318 317 313 311 308 303 302 302 300 295 295 290
77 83 175 199 359 285 201 192 182 196 225 240 235 237 157 154 153 153 141 142 142 138 129 109 63 10 351 339 334 329 326 325 322 318 315 312 310 309 308 307 302 296 291 286
150 174 194 195 200 190 158 177 172 200 222 226 254 218 222 203 192 178 157 163 149 141 127 64 3 353 336 334 329 323 320 322 322 318 315 312 309 305 305 304 303 293 284 280
188 118 154 129 105 210 224 204 212 225 234 248 246 252 260 148 150 155 163 172 148 121 50 4 353 339 334 332 328 324 321 322 317 310 306 303 300 305 300 299 295 287 282 284
86 131 133 192 48 293 262 243 234 232 230 243 251 258 170 163 178 163 150 138 100 54 5 351 340 337 334 330 325 319 320 318 312 307 303 301 300 299 300 296 290 289 295 295
123 106 80 120 142 221 55 305 280 263 257 241 254 251 232 207 127 107 91 81 51 17 353 340 337 333 332 329 321 316 315 311 307 304 303 305 301 301 298 295 296 296 288 289
40 110 116 177 200 325 130 82 133 188 176 271 260 154 123 127 126 98 73 57 30 4 346 335 329 327 322 318 315 309 305 305 303 301 303 305 304 300 299 302 294 289 293 299
75 91 98 161 196 216 102 40 344 219 225 115 138 130 130 151 180 109 115 53 13 351 337 331 327 318 313 316 313 307 305 305 304 308 307 302 300 298 297 290 291 298 295 297
151 153 164 149 229 264 282 299 288 213 68 133 125 115 104 86 53 104 83 47 9 354 346 339 328 320 318 321 319 313 310 308 310 305 299 299 295 292 286 288 297 300 293 292
155 161 165 160 196 253 81 220 242 72 106 121 109 91 91 102 94 61 41 20 5 354 349 347 335 329 332 330 320 316 313 314 307 302 301 301 297 291 293 300 295 295 293 291
149 178 172 186 162 17 329 354 89 118 122 104 101 95 102 96 70 43 23 8 356 346 341 344 341 334 333 327 330 323 320 315 311 305 301 299 296 296 300 300 296 300 293 283
120 146 113 164 114 347 352 90 110 124 115 115 104 104 106 106 86 72 20 2 353 352 350 349 345 338 329 336 332 320 317 318 312 306 306 304 299 303 303 304 299 294 290 286
356 158 162 218 215 225 188 129 120 110 104 102 93 94 98 103 88 42 5 349 343 345 345 345 351 337 335 333 330 325 325 320 314 309 305 306 304 307 309 306 296 290 284 280
206 160 186 130 160 175 80 146 138 128 122 115 114 106 92 82 66 22 10 4 355 351 349 352 351 345 338 327 327 329 328 323 319 314 314 311 308 307 301 301 305 289 263 271